Regional Weather Roundup
Issued by NWS

Home | Current Version | Previous Version | Text Only | Print | Product List | Glossary On
Versions: 1 2 3 4 5 6 7 8 9 10 11 12 13 14 15 16 17 18 19 20 21 22 23 24 25 26 27 28 29 30 31 32 33 34 35 36 37 38 39 40 41 42 43 44 45 46 47 48 49 50
000
ASUS46 KSEW 311010
RWRWA

WASHINGTON REGIONAL WEATHER ROUNDUP
NATIONAL WEATHER SERVICE SEATTLE WA
300 AM PDT MON AUG 31 2015

NOTE:"FAIR" INDICATES FEW OR NO CLOUDS BELOW 12,000 FEET WITH NO
SIGNIFICANT WEATHER AND/OR OBSTRUCTIONS TO VISIBILITY.

WAZ505-507>509-311100-
SEATTLE, TACOMA, EVERETT, AND VICINITY

CITY           SKY/WX    TMP DP  RH WIND       PRES   REMARKS
EVERETT        CLOUDY    61  49  64 S18G28    29.96S
BOEING FIELD   CLOUDY    66  49  54 S12G20    29.97F
RENTON           N/A    N/A N/A N/A MISG      29.97F
SEATAC AIRPORT CLOUDY    63  49  60 S14       29.98F
JBLM-MCCHORD   CLOUDY    62  50  65 S12       29.98F
PUYALLUP       CLOUDY    63  50  63 S10G17    29.99F
BREMERTON      CLOUDY    57  54  88 S15       29.98S
JBLM-FT LEWIS  CLOUDY    62  50  65 S14G25    29.97F
TACOMA NARROWS CLOUDY    62  50  64 S14G23    29.98F
$$

WAZ001-503-506-510-514-515-311100-
NORTH INTERIOR

CITY           SKY/WX    TMP DP  RH WIND       PRES   REMARKS
BELLINGHAM       N/A     63  52  67 SE22G37     N/A
FRIDAY HARBOR  CLOUDY    57  52  83 SE10      29.88S
EASTSOUND      MOCLDY    61  54  77 S14G21    29.84S
PORT ANGELES   CLOUDY    56  53  90 CALM      29.87S
PORT TOWNSEND  MOCLDY    61  55  82 S13G20    29.88S
NAS WHIDBEY    CLOUDY    62  53  72 S25G38    29.92S
ARLINGTON      CLOUDY    61  48  63 SE18G25   29.93F
BURLINGTON     CLOUDY    63  52  67 SE12G23   29.91S
$$

WAZ020-022-039-040-504-511-512-311100-
SOUTHWEST INTERIOR

CITY           SKY/WX    TMP DP  RH WIND       PRES   REMARKS
SHELTON        CLOUDY    57  54  89 S6        29.94F
OLYMPIA        CLOUDY    60  51  72 S13       29.98F
CHEHALIS       CLOUDY    63  54  72 S9G17     30.00F
KELSO          NOT AVBL
VANCOUVER      CLOUDY    62  52  69 CALM      30.05F
SCAPPOOSE, OR  CLOUDY    61  51  70 CALM      30.05S
PORTLAND, OR   MOCLDY    61  53  75 S7        30.06F
$$

WAZ021-516-517-311100-
WASHINGTON COAST

CITY           SKY/WX    TMP DP  RH WIND       PRES   REMARKS
FORKS          FOG       60  59  96 S10G20    29.88F VSB 3/4
HOQUIAM        LGT RAIN  61  58  90 S15       29.96F FOG
ASTORIA, OR    CLOUDY    63  56  78 S9G20     30.00F
$$

WAZ019-023-024-040-518-519-311100-
CASCADE MOUNTAINS AND COLUMBIA GORGE

CITY           SKY/WX    TMP DP  RH WIND       PRES   REMARKS
TROUTDALE, OR  FAIR      56  52  86 E5        30.06F
THE DALLES, OR FAIR      62  48  60 NW14      30.03S
$$

WAZ026-027-041>044-520-521-311100-
EAST SLOPES

CITY           SKY/WX    TMP DP  RH WIND       PRES   REMARKS
OMAK           FAIR      61  41  47 S12       29.89F
WENATCHEE      FAIR      61  41  47 NW7       29.93F
ELLENSBURG     FAIR      55  43  63 NW10      29.98F
YAKIMA         FAIR      51  42  71 NW6       29.98F
$$

WAZ028-034-035-311100-
COLUMBIA BASIN

CITY           SKY/WX    TMP DP  RH WIND       PRES   REMARKS
EPHRATA        FAIR      57  44  62 SW10      29.94S
MOSES LAKE     FAIR      58  45  62 S8        29.96F
PASCO          FAIR      61  48  62 S9        30.00F
HERMISTON, OR  FAIR      58  45  62 SW9       30.02F
$$

WAZ036>038-311100-
NORTHEAST WASHINGTON

CITY           SKY/WX    TMP DP  RH WIND       PRES   REMARKS
SPOKANE GEIGER MOCLDY    51  43  74 S12       29.99S
SPOKANE FELTS  FAIR      55  44  66 CALM      30.01R
FAIRCHILD AFB  CLOUDY    49  43  77 S10       29.99S
COEURDALENE,ID CLOUDY    55  45  67 S12       30.01S
DEER PARK      FAIR      49  43  80 S5        30.00R
$$

WAZ029>033-311100-
SOUTHEAST WASHINGTON

CITY           SKY/WX    TMP DP  RH WIND       PRES   REMARKS
PULLMAN        FAIR      52  42  69 SW5       30.07S
LEWISTON, ID   CLOUDY    58  51  78 SE7       30.04R
WALLA WALLA    FAIR      60  46  59 S9        30.04S
PENDLETON, OR  FAIR      55  43  63 SW8       30.04F
$$



USA.gov is the U.S. government's official web portal to all federal, state and local government web resources and services.